Showing default

JAY-C, 62668

Orbit data source: Space-Track

JAY-C, 62668 is a Canadian payload satellite in SSO that was launched on Tue, 14 Jan 2025 UTC via an FALCON 9 launch vehicle from the Air Force Western Test Range (AFWTR). Payload-class satellites include a variety of spacecraft equipped with specific instruments for various scientific and technological missions. These include communications satellites like Starlink; space stations such as the ISS; scientific satellites like the Hubble; Earth observation satellites from companies like Planet Labs, Umbra, and HawkEye 360; GPS; miniature CubeSats for education and research; and military/defense satellites.

Loading next visibility...
Identifier
62668, 2025-009BM
Orbit
SSO
Country
Flag of CACA
Related business
Manufacturer
UTIAS-SFL
Mission
Operational Commercial Imaging
Bus & Motor
DEFIANT, Unknown motor
Mass
~35 kg wet, ~35 kg dry
Launch date (UTC)
2025-01-14 (2 years ago)
Launch vehicle
FALCON 9
Launch site
Air Force Western Test Range (AFWTR)
Object type
Payload
Rocket body
Debris
Shape & HBR
Box + 2 Pan, 0.6 m
Radar Cross Section
0.165 m², Medium (>0.1 m² and < 1m²)

Expand to show TLE details & history
Last TLE update: 9 hours ago

TLE from 9 hours ago
0 JAY-C
1 62668U 25009BM  26238.11128169  .00003241  00000-0  14180-3 0  9991
2 62668  97.3927 315.9219 0006108  93.9782 266.2152 15.22753495147010
Epoch: 2026-08-26T02:40Z
TLE epoch observation values (Epoch: 2026-08-26T02:40:14.738Z)
Latitude
-0.00009°
Longitude
-58.50847°
Altitude
500.914 km
Speed
7.614 km/s
True Right ascension
21h 03m 41s
True Declination
0° 00' 00"
Sunlit
Object was in full shadow at epoch
Visualization orbit readout
Latitude
Unknown
Longitude
Unknown
Altitude
Unknown
Speed
Unknown
Apparent Right ascension
Unknown
Apparent Declination
Unknown
Sunlit
N/A
Visualization observer readout
Local Sidereal Time
03:00:15
Azimuth
Unknown
Elevation
Unknown
Doppler factor
Unknown
Orbital elements
Apogee altitude
498.699 km
Perigee altitude
490.303 km
Semi-major axis
6,872.638 km
Eccentricity
0.00061
Inclination
97.3927°
RAAN
315.9219°
Arg. of periapsis
93.9782°
True anomaly
266.14536°
Mean anomaly
266.2152°
Eccentric anomaly
266.18028°
Mean motion
3.80941 °/min
Orbital period
94.5 mins
BSTAR
0.0001418
Loading maneuver chart data...
Computing Atmospheric mass density...
Loading historical data...
Loading historical data...
Loading historical data...
Loading historical data...
Loading historical data...
Loading historical data...
Loading historical data...

Documentation

Showing up to 5 results
|